CZ-6A DEB, 56613

Orbit data source: Space-Track

CZ-6A DEB, 56613 is space debris in SSO originally from a launch on Fri, 11 Nov 2022 UTC launched from the Taiyaun Space Center, China (TSC). Debris objects in space refer to the collection of defunct objects orbiting the Earth. Examples of debris include non-operational satellites, rocket bodies, and fragments generated from explosions, collisions, or faulty payload assembly.

Loading next visibility...
Identifier
56613, 2022-151AEM
Orbit
SSO
Country
Flag of CNCN / PRC
Related business
Manufacturer
SAST
Mission
Spacecraft
Bus & Motor
Unknown
Mass
Unknown
Launch date (UTC)
2022-11-11 (3 years ago)
Launch vehicle
Unknown
Launch site
Taiyaun Space Center, China (TSC)
Object type
Payload
Rocket body
Debris
Shape & HBR
Unknown shape, 0.1 m
Radar Cross Section
Small (<0.1 m²)

Expand to show TLE details & history
Last TLE update: 1 day ago

TLE from 1 day ago
0 CZ-6A DEB
1 56613U 22151AEM 26129.91199228  .00000650  00000-0  31140-3 0  9996
2 56613  98.8046 155.0639 0003851  57.5338 302.6211 14.22495043162788
Epoch: 2026-05-09T21:53Z
TLE epoch observation values (Epoch: 2026-05-09T21:53:16.132Z)
Latitude
-0.0001°
Longitude
-40.97593°
Altitude
818.349 km
Speed
7.445 km/s
True Right ascension
10h 20m 15s
True Declination
0° 00' 00"
Sunlit
Object was in daylight at epoch
Visualization orbit readout
Latitude
Unknown
Longitude
Unknown
Altitude
Unknown
Speed
Unknown
Apparent Right ascension
Unknown
Apparent Declination
Unknown
Sunlit
N/A
Visualization observer readout
Local Sidereal Time
06:28:17
Azimuth
Unknown
Elevation
Unknown
Doppler factor
Unknown
Orbital elements
Apogee altitude
816.857 km
Perigee altitude
811.317 km
Semi-major axis
7,192.224 km
Eccentricity
0.00039
Inclination
98.8046°
RAAN
155.0639°
Arg. of periapsis
57.5338°
True anomaly
302.58392°
Mean anomaly
302.6211°
Eccentric anomaly
302.60251°
Mean motion
3.55835 °/min
Orbital period
101.17 mins
BSTAR
0.0003114
Loading maneuver chart data...
Computing Atmospheric mass density...
Loading historical data...
Loading historical data...
Loading historical data...
Loading historical data...
Loading historical data...
Loading historical data...
Loading historical data...

Documentation

Showing up to 5 results
|